{"data":{"norad_id":49762,"epoch":"2026-09-19T19:42:05.394528Z","epoch_age_seconds":103904,"freshness":"FRESH","line1":"1 49762U 21115AQ  26262.82089577  .00001657  00000+0  60202-4 0  9994","line2":"2 49762  53.1614 332.5471 0001100  92.9669 267.1460 15.34384566265192","mean_motion":15.34384566,"eccentricity":0.00011,"inclination_deg":53.1614,"raan_deg":332.5471,"arg_perigee_deg":92.9669,"mean_anomaly_deg":267.146,"bstar":6.0202e-5,"rev_number":26519,"period_min":93.848702073037,"perigee_km":461.99661621969,"apogee_km":463.5016111647,"semimajor_km":6840.8861136922,"source":"CELESTRAK","updated_at":"2026-09-20T09:00:39.411125Z"}}